User: anonymous   Login
Location: Newark
(13.8117°N, 3.6025°W)
Time: 07:40:53
(UTC+00:00)
Language:

Transit 4A - Orbit

View from above orbital plane
View from above orbital plane
View from above satellite
View from above satellite

Ground track
Ground track

The orbit data is extracted from the following two-line orbital elements,

1   116U 61015A   19237.18269401 -.00000052  00000-0  19296-4 0  9993
2   116  66.8082 214.9095 0080481 221.1279 138.3717 13.91756921950935
Epoch (UTC): 25 August 2019 04:23:04
Eccentricity: 0.0080481
inclination: 66.8082°
perigee height: 864 km
apogee height: 981 km
right ascension of ascending node: 214.9095°
argument of perigee: 221.1279°
revolutions per day: 13.91756921
mean anomaly at epoch: 138.3717°
orbit number at epoch: 95093

The dashed part of the orbit path shows where the satellite is in the earth's shadow,  

DLR